Powrót do katalogu

STARLINK-37599

AktywnyŁącznośćVLEO
NORAD 69360·PAYLOAD·🇺🇸 United States

Wystrzelony Jun 4, 2026 z Cape Canaveral Space Force Station

Loading…

Następne Przeloty (najbliższe 24 godziny)

TLE

ŚwieżeSource: CelesTrak SupGP

Epoka: Sep 15, 2026, 02:59 UTC

1 69360C 26123H   26258.12479167 -.00019088  00000+0 -56401-3 0  2582
2 69360  53.1578 166.7913 0001315  82.1058 349.0978 15.34397709    11

Śledź STARLINK-37599 w czasie rzeczywistym z AllMySat

Download on the App Store